Spokane Fairchild, WA
on Friday, December 14, 2012

Friday
Previous Day Next Day
Daily Summary
 ActualAverage (KGEG)Record (KGEG)
Temperature
Mean Temperature °F 27°F  
Max Temperature 29°F 32°F 55°F (2002)
Min Temperature 15°F 22°F -8°F (1922)
Degree Days
Heating Degree Days 43 38  
Month to date heating degree days 515  
Since 1 July heating degree days 2182  
Cooling Degree Days 0 0  
Month to date cooling degree days 0  
Year to date cooling degree days 450  
Moisture
Dew Point 25°F   
Average Humidity 100    
Maximum Humidity 100    
Minimum Humidity 100    
Precipitation
Precipitation 0.02 in 0.07 in 0.65 in (2002)
Month to date precipitation 1.11  
Year to date precipitation 15.37  
Snow
Snow 0.00 in 0.40 in 4.10 in (1964)
Month to date snowfall 5.9  
Since 1 July snowfall 13.4  
Snow Depth 2.00 in   
Wind
Wind Speed 3 mph   
Max Wind Speed 6 mph   
Max Gust Speed mph   
Visibility 5 miles   
Events Fog , Rain , Snow   

Key: T is trace of precipitation, MM is missing value
Source: NWS Daily Summary
Time(PST)TemperatureDew PointHumidity Pressure Visibility Wind DirectionWind SpeedGust SpeedPrecipitationEvents Conditions
12:03 AM 15.8°F 15.8°F 100% 29.79 in 0.2 miles Calm Calm - N/A Fog Light Freezing Fog
12:31 AM 17.6°F 17.6°F 100% 29.79 in 0.2 miles Calm Calm - N/A Fog Light Freezing Fog
12:41 AM 17.6°F 17.6°F 100% 29.78 in 0.2 miles Variable 1.2 mph - N/A Fog Light Freezing Fog
12:46 AM 17.6°F 17.6°F 100% 29.78 in 0.2 miles East 2.3 mph - N/A Fog Light Freezing Fog
12:56 AM 17.6°F 17.6°F 100% 29.78 in 0.5 miles SE 3.5 mph - N/A Fog Light Freezing Fog
12:58 AM 17.6°F 17.6°F 100% 29.88 in 0.8 miles SE 2.3 mph - N/A   Scattered Clouds
1:03 AM 19.4°F 19.4°F 100% 29.78 in 1.5 miles SE 2.3 mph - N/A   Mostly Cloudy
1:08 AM 19.4°F 19.4°F 100% 29.78 in 1.5 miles SE 2.3 mph - N/A   Mostly Cloudy
1:11 AM 19.4°F 19.4°F 100% 29.78 in 1.0 miles SSE 3.5 mph - N/A Snow Light Snow
1:16 AM 19.4°F 19.4°F 100% 29.78 in 1.2 miles SSE 2.3 mph - N/A Snow Light Snow
1:21 AM 19.4°F 19.4°F 100% 29.78 in 1.5 miles SSE 3.5 mph - N/A Snow Light Snow
1:22 AM 19.4°F 19.4°F 100% 29.78 in 1.2 miles SSE 3.5 mph - N/A   Overcast
1:23 AM 19.4°F 19.4°F 100% 29.78 in 1.0 miles SSE 3.5 mph - N/A   Light Freezing Drizzle
1:28 AM 19.4°F 19.4°F 100% 29.78 in 0.5 miles SSE 2.3 mph - N/A Fog Light Freezing Drizzle
1:33 AM 19.4°F 19.4°F 100% 29.77 in 0.5 miles SSE 2.3 mph - N/A Fog Light Freezing Drizzle
1:35 AM 19.4°F 19.4°F 100% 29.77 in 0.5 miles SSE 2.3 mph - N/A Fog , Snow Light Freezing Fog
1:45 AM 21.2°F 21.2°F 100% 29.77 in 0.8 miles SE 2.3 mph - N/A Snow Light Snow
1:47 AM 21.2°F 21.2°F 100% 29.77 in 0.8 miles Calm Calm - N/A   Mist
1:48 AM 21.2°F 21.2°F 100% 29.77 in 0.8 miles Calm Calm - N/A   Light Freezing Drizzle
1:58 AM 23.0°F 23.0°F 100% 29.85 in 0.5 miles ESE 1.2 mph - 0.00 in Fog Light Freezing Drizzle
2:08 AM 23.0°F 23.0°F 100% 29.76 in 0.5 miles Calm Calm - N/A Fog Light Freezing Drizzle
2:12 AM 23.0°F 23.0°F 100% 29.76 in 0.5 miles ESE 2.3 mph - N/A Fog , Snow Light Freezing Fog
2:17 AM 23.0°F 23.0°F 100% 29.76 in 0.5 miles ESE 3.5 mph - N/A Fog , Snow Light Freezing Fog
2:20 AM 23.0°F 23.0°F 100% 29.76 in 0.5 miles ESE 2.3 mph - N/A Fog Light Freezing Fog
2:25 AM 23.0°F 23.0°F 100% 29.76 in 1.2 miles SE 2.3 mph - N/A   Overcast
2:30 AM 23.0°F 23.0°F 100% 29.76 in 7.0 miles SE 1.2 mph - N/A   Overcast
2:40 AM 24.8°F 24.8°F 100% 29.76 in 6.0 miles SE 3.5 mph - N/A   Overcast
2:58 AM 24.4°F 24.4°F 100% 29.83 in 6.0 miles SE 4.6 mph - 0.00 in   Overcast
3:06 AM 24.8°F 24.8°F 100% 29.74 in 8.0 miles ESE 5.8 mph - N/A Rain Light Freezing Rain
3:07 AM 24.8°F 24.8°F 100% 29.74 in 8.0 miles SE 5.8 mph - N/A   Overcast
3:27 AM 26.6°F 26.6°F 100% 29.74 in 10.0 miles SE 2.3 mph - N/A   Overcast
3:47 AM 24.8°F 24.8°F 100% 29.74 in 10.0 miles SE 3.5 mph - N/A   Scattered Clouds
3:49 AM 24.8°F 24.8°F 100% 29.74 in 10.0 miles SE 4.6 mph - N/A   Scattered Clouds
3:58 AM 25.0°F 25.0°F 100% 29.81 in 10.0 miles SE 4.6 mph - 0.00 in   Partly Cloudy
4:11 AM 24.8°F 24.8°F 100% 29.73 in 10.0 miles SE 2.3 mph - N/A   Clear
4:58 AM 24.8°F 24.8°F 100% 29.81 in 10.0 miles SE 2.3 mph - 0.00 in   Clear
5:58 AM 24.8°F 24.8°F 100% 29.81 in 10.0 miles ENE 1.2 mph - N/A   Overcast
5:59 AM 24.8°F 24.8°F 100% 29.73 in 10.0 miles NE 1.2 mph - N/A   Overcast
6:10 AM 24.8°F 24.8°F 100% 29.73 in 10.0 miles East 1.2 mph - N/A   Overcast
6:35 AM 24.8°F 24.8°F 100% 29.73 in 10.0 miles ESE 2.3 mph - N/A   Overcast
6:50 AM 24.8°F 24.8°F 100% 29.73 in 10.0 miles ESE 2.3 mph - N/A   Overcast
6:58 AM 25.7°F 25.7°F 100% 29.82 in 10.0 miles ESE 2.3 mph - 0.00 in   Overcast
7:14 AM 26.6°F 26.6°F 100% 29.73 in 10.0 miles East 1.2 mph - N/A   Overcast
7:58 AM 26.4°F 26.4°F 100% 29.83 in 3.0 miles SSE 3.5 mph - 0.00 in Snow Light Snow
8:18 AM 26.6°F 26.6°F 100% 29.74 in 2.5 miles SE 4.6 mph - N/A Snow Light Snow
8:23 AM 26.6°F 26.6°F 100% 29.74 in 3.0 miles SE 3.5 mph - N/A Snow Light Snow
8:28 AM 26.6°F 26.6°F 100% 29.74 in 3.0 miles SSE 4.6 mph - N/A Snow Light Snow
8:53 AM 26.6°F 26.6°F 100% 29.75 in 2.5 miles SE 4.6 mph - N/A Snow Light Snow
8:58 AM 26.8°F 26.8°F 100% 29.85 in 2.5 miles SE 4.6 mph - 0.00 in Snow Light Snow
9:08 AM 26.6°F 26.6°F 100% 29.75 in 3.0 miles SSE 5.8 mph - N/A Snow Light Snow
9:18 AM 26.6°F 26.6°F 100% 29.75 in 2.5 miles SE 4.6 mph - N/A Snow Light Snow
9:28 AM 26.6°F 26.6°F 100% 29.75 in 3.0 miles SE 4.6 mph - N/A Snow Light Snow
9:33 AM 26.6°F 26.6°F 100% 29.75 in 4.0 miles SSE 5.8 mph - N/A Snow Light Snow
9:58 AM 27.5°F 27.5°F 100% 29.85 in 10.0 miles SSE 4.6 mph - 0.00 in Snow Light Snow
10:28 AM 28.4°F 28.4°F 100% 29.75 in 6.0 miles SSE 5.8 mph - N/A Snow Light Snow
10:58 AM 28.2°F 28.2°F 100% 29.83 in 9.0 miles SSE 5.8 mph - 0.00 in Snow Light Snow
11:01 AM 28.4°F 28.4°F 100% 29.74 in 7.0 miles SSE 5.8 mph - N/A Snow Light Snow
11:36 AM 28.4°F 28.4°F 100% 29.74 in 9.0 miles South 4.6 mph - N/A Snow Light Snow
11:41 AM 28.4°F 28.4°F 100% 29.74 in 10.0 miles SSE 5.8 mph - N/A Snow Light Snow
11:51 AM 28.4°F 28.4°F 100% 29.75 in 10.0 miles South 5.8 mph - N/A Snow Light Snow
11:56 AM 28.4°F 28.4°F 100% 29.74 in 9.0 miles South 5.8 mph - N/A Snow Light Snow
11:58 AM 29.1°F 29.1°F 100% 29.84 in 9.0 miles South 5.8 mph - 0.00 in Snow Light Snow
12:58 PM 29.3°F 29.3°F 100% 29.85 in 3.0 miles South 2.3 mph - 0.00 in Snow Light Snow
1:13 PM 28.4°F 28.4°F 100% 29.75 in 2.5 miles South 2.3 mph - N/A Snow Light Snow
1:33 PM 28.4°F 28.4°F 100% 29.75 in 1.8 miles SW 2.3 mph - N/A Snow Light Snow
1:38 PM 28.4°F 28.4°F 100% 29.76 in 1.5 miles WSW 3.5 mph - N/A Snow Light Snow
1:43 PM 28.4°F 28.4°F 100% 29.76 in 1.0 miles WSW 3.5 mph - N/A Snow Light Snow
1:48 PM 28.4°F 28.4°F 100% 29.76 in 1.0 miles WSW 3.5 mph - N/A Snow Light Snow
1:58 PM 29.1°F 29.1°F 100% 29.85 in 1.0 miles WSW 4.6 mph - 0.01 in Snow Light Snow
2:03 PM 28.4°F 28.4°F 100% 29.76 in 1.2 miles WSW 4.6 mph - N/A Snow Light Snow
2:08 PM 28.4°F 28.4°F 100% 29.76 in 1.0 miles WSW 3.5 mph - N/A Snow Light Snow
2:28 PM 28.4°F 28.4°F 100% 29.76 in 1.2 miles West 4.6 mph - N/A Snow Light Snow
2:33 PM 28.4°F 28.4°F 100% 29.76 in 2.0 miles WSW 3.5 mph - N/A Snow Light Snow
2:48 PM 28.4°F 28.4°F 100% 29.77 in 3.0 miles WSW 3.5 mph - N/A Snow Light Snow
2:53 PM 28.4°F 28.4°F 100% 29.77 in 3.0 miles WSW 3.5 mph - N/A Snow Light Snow
2:58 PM 28.4°F 28.4°F 100% 29.86 in 4.0 miles West 4.6 mph - 0.00 in Snow Light Snow
3:03 PM 28.4°F 28.4°F 100% 29.77 in 6.0 miles West 4.6 mph - N/A Snow Light Snow
3:58 PM 27.5°F 27.5°F 100% 29.88 in 6.0 miles WNW 2.3 mph - 0.00 in Snow Light Snow
4:18 PM 26.6°F 26.6°F 100% 29.80 in 7.0 miles SW 2.3 mph - N/A Snow Light Snow
4:19 PM 26.6°F 26.6°F 100% 29.80 in 6.0 miles WSW 2.3 mph - N/A   Overcast
4:28 PM 26.6°F 26.6°F 100% 29.80 in 5.0 miles West 3.5 mph - N/A Snow Light Snow
4:31 PM 26.6°F 26.6°F 100% 29.81 in 6.0 miles West 3.5 mph - N/A Snow Light Snow
4:58 PM 26.8°F 26.8°F 100% 29.91 in 4.0 miles WSW 4.6 mph - 0.01 in Snow Light Snow
5:06 PM 26.6°F 26.6°F 100% 29.82 in 7.0 miles West 5.8 mph - N/A   Overcast
5:09 PM 26.6°F 26.6°F 100% 29.82 in 9.0 miles West 4.6 mph - N/A Snow Light Snow
5:20 PM 26.6°F 26.6°F 100% 29.82 in 10.0 miles West 5.8 mph - N/A   Overcast
5:30 PM 26.6°F 26.6°F 100% 29.82 in 10.0 miles WSW 2.3 mph - N/A Snow Light Snow
5:37 PM 26.6°F 26.6°F 100% 29.82 in 5.0 miles WSW 3.5 mph - N/A Snow Light Snow
5:47 PM 26.6°F 26.6°F 100% 29.82 in 4.0 miles WSW 3.5 mph - N/A Snow Light Snow
5:52 PM 26.6°F 26.6°F 100% 29.82 in 4.0 miles WSW 2.3 mph - N/A Snow Light Snow
5:58 PM 26.8°F 26.8°F 100% 29.91 in 5.0 miles WSW 3.5 mph - 0.00 in Snow Light Snow
6:03 PM 26.6°F 26.6°F 100% 29.82 in 5.0 miles WSW 3.5 mph - N/A Snow Light Snow
6:13 PM 26.6°F 26.6°F 100% 29.83 in 5.0 miles WSW 4.6 mph - N/A Snow Light Snow
6:27 PM 26.6°F 26.6°F 100% 29.83 in 10.0 miles WSW 3.5 mph - N/A   Overcast
6:58 PM 26.2°F 26.2°F 100% 29.92 in 10.0 miles West 2.3 mph - 0.00 in   Overcast
7:40 PM 26.6°F 26.6°F 100% 29.84 in 10.0 miles West 2.3 mph - N/A   Overcast
7:58 PM 26.6°F 26.6°F 100% 29.93 in 10.0 miles West 2.3 mph - N/A   Overcast
8:01 PM 26.6°F 26.6°F 100% 29.84 in 10.0 miles West 2.3 mph - N/A   Overcast
8:21 PM 26.6°F 26.6°F 100% 29.84 in 10.0 miles SSW 2.3 mph - N/A   Overcast
8:24 PM 26.6°F 26.6°F 100% 29.84 in 10.0 miles South 2.3 mph - N/A   Overcast
8:58 PM 25.5°F 25.5°F 100% 29.94 in 10.0 miles SW 2.3 mph - 0.00 in   Overcast
9:58 PM 26.2°F 26.2°F 100% 29.95 in 10.0 miles WSW 4.6 mph - N/A   Overcast
10:58 PM 26.4°F 26.4°F 100% 29.96 in 10.0 miles WSW 3.5 mph - N/A   Overcast
11:28 PM 26.6°F 26.6°F 100% 29.88 in 10.0 miles WSW 2.3 mph - N/A   Overcast
11:44 PM 26.6°F 26.6°F 100% 29.88 in 10.0 miles Calm Calm - N/A   Overcast
11:55 PM 26.6°F 26.6°F 100% 29.88 in 10.0 miles SSW 2.3 mph - N/A   Overcast
11:58 PM 26.6°F 26.6°F 100% 29.96 in 10.0 miles South 2.3 mph - 0.00 in   Overcast
Moon Phase
Dec. 14 Dec. 20 Dec. 28 Jan. 04 Jan. 11
Sunrise:07:31 AM (PST) Moon Rise:08:36 AM (PST)12/14
Sunset:03:59 PM (PST) Moon Set:06:02 PM (PST)12/14

Copyright © 2014 The Weather Underground, Inc.